Hourly Data Report for September 06, 2015

IQALUIT CLIMATE
NUNAVUT

63°44'50.000" N
68°32'40.000" W
33.50 m
2402592
71321
XFB

Download Data

Hourly Data (September 2015)
Hourly Data Report for September 6, 2015
TIME
LST
Temp Definition
°C
Dew Point Definition
°C
Rel Hum Definition
%
Precip. Amount Definition
mm

Wind Dir Definition
10's deg

Wind Spd Definition
km/h
Visibility Definition
km
Stn Press Definition
kPa
Hmdx Definition


Wind Chill Definition


Weather Definition


00:00 1.8 -0.3 86 0.0 32 24   101.36     LegendNANA
01:00 2.2 0.0 85 0.0 31 23   101.35     LegendNANA
02:00 2.5 0.4 86 0.0 31 23   101.34     LegendNANA
03:00 2.5 0.4 86 0.0 32 24   101.33     LegendNANA
04:00 2.5 1.0 90 0.0 32 24   101.33     LegendNANA
05:00 1.9 0.2 89 0.0 33 22   101.33     LegendNANA
06:00 3.1 0.8 85 0.0 33 27   101.33     LegendNANA
07:00 3.8 1.1 82 0.0 33 27   101.32     LegendNANA
08:00 4.3 -0.6 70 0.0 33 32   101.28     LegendNANA
09:00 5.4 0.0 68 0.0 33 30   101.23     LegendNANA
10:00 6.5 0.3 65 0.0 32 27   101.19     LegendNANA
11:00 8.0 -0.9 53 0.0 34 33   101.12     LegendNANA
12:00 7.4 -1.3 54 0.0 34 31   101.13     LegendNANA
13:00 7.7 -0.4 56 0.0 34 34   101.11     LegendNANA
14:00 8.0 0.1 57 0.0 34 31   101.09     LegendNANA
15:00 7.8 -0.8 55 0.0 34 34   101.05     LegendNANA
16:00 8.6 -0.3 53 0.0 34 33   100.97     LegendNANA
17:00 7.9 -0.6 55 0.0 33 30   100.91     LegendNANA
18:00 7.0 -0.2 60 0.0 33 22   100.90     LegendNANA
19:00 5.1 0.9 75 0.0 33 25   100.87     LegendNANA
20:00 4.4 0.7 77 0.0 32 18   100.91     LegendNANA
21:00 4.0 1.4 83 0.0 32 21   100.90     LegendNANA
22:00 3.5 1.9 90 0.0 34 21   100.91     LegendNANA
23:00 3.3 1.8 90 0.0 33 26   100.89     LegendNANA

Notes on Data Quality.

Legend

  • E = Estimated
  • M = Missing
  • NA = Not Available*
  • [empty] = Indicates an unobserved value
Date modified: